Livermore, CA

1:02 AM PDT on July 28, 2017 (GMT -0700)
Livermore Municipal

Weather History for KLVK - February, 2012

Change the Weather History Date:

Tuesday, February 7, 2012

  Actual Average Record
Temperature  
Mean Temperature 56 °F 49 °F  
Max Temperature 60 °F 59 °F 73 °F (2011)
Min Temperature 51 °F 40 °F 25 °F (1989)
Degree Days  
Heating Degree Days 9 16  
Month to date heating degree days 98 115  
Since 1 July heating degree days 1593 1713  
Cooling Degree Days 0 0  
Month to date cooling degree days 0 0  
Year to date cooling degree days 0 0  
Growing Degree Days 6 (Base 50)    
Moisture  
Dew Point 46 °F    
Average Humidity 67    
Maximum Humidity 89    
Minimum Humidity 44    
Precipitation  
Precipitation 0.15 in 0.09 in 0.98 in (2017)
Month to date precipitation 0.15 0.63  
Year to date precipitation 1.79 3.64  
Since 1 July precipitation 3.70  
Sea Level Pressure  
Sea Level Pressure 29.90 in    
Wind  
Wind Speed 4 mph (East)    
Max Wind Speed 22 mph    
Max Gust Speed 32 mph    
Visibility 9 miles    
Events Rain    
T = Trace of Precipitation, MM = Missing Value Source: NWS Daily Summary

Daily Weather History Graph

Daily Weather History Graph

Search for Another Location

Airport or City:

Trip Planner

Search our weather history database for the weather conditions in past years. The results will help you decide how hot, cold, wet, or windy it might be!

Date:

Astronomy

Feb. 07, 2012 Rise Set
Actual Time 7:05 AM PST 5:37 PM PST
Civil Twilight 6:38 AM PST 6:04 PM PST
Nautical Twilight 6:07 AM PST 6:35 PM PST
Astronomical Twilight 5:37 AM PST 7:06 PM PST
Moon 5:53 PM PST (2/7) 6:38 AM PST (2/7)
Length of Visible Light 11h 25m
Length of Day
10h 31m
Full, 100% of the Moon is Illuminated
Feb 7
Full
Feb 7
Full
Feb 14
Last Quarter
Feb 21
New
Feb 29
First Quarter

Hourly Weather History & Observations

Time (PST) Temp. Dew Point Humidity Pressure Visibility Wind Dir Wind Speed Gust Speed Precip Events Conditions
12:53 AM 55.0 °F 45.0 °F 69% 29.78 in 10.0 mi West 6.9 mph - 0.00 in   Overcast
1:53 AM 55.0 °F 44.1 °F 67% 29.79 in 10.0 mi Calm Calm - 0.00 in Rain Light Rain
2:53 AM 57.9 °F 39.0 °F 49% 29.79 in 10.0 mi SSE 5.8 mph - 0.00 in   Overcast
3:53 AM 59.0 °F 37.0 °F 44% 29.78 in 10.0 mi SSE 15.0 mph 23.0 mph N/A   Overcast
4:53 AM 59.0 °F 37.0 °F 44% 29.77 in 10.0 mi SSE 9.2 mph 24.2 mph 0.00 in Rain Light Rain
5:53 AM 59.0 °F 37.0 °F 44% 29.78 in 10.0 mi ESE 8.1 mph 31.1 mph 0.00 in Rain Light Rain
6:53 AM 55.0 °F 43.0 °F 64% 29.79 in 9.0 mi East 6.9 mph - 0.07 in Rain Light Rain
7:53 AM 54.0 °F 44.1 °F 69% 29.81 in 10.0 mi East 10.4 mph - 0.02 in Rain Light Rain
8:53 AM 52.0 °F 48.9 °F 89% 29.84 in 10.0 mi West 3.5 mph - 0.01 in Rain Light Rain
9:53 AM 54.0 °F 46.9 °F 77% 29.86 in 10.0 mi Calm Calm - 0.03 in Rain Light Rain
10:53 AM 55.0 °F 48.0 °F 77% 29.88 in 10.0 mi NNE 3.5 mph - 0.02 in Rain Light Rain
11:53 AM 55.0 °F 51.1 °F 86% 29.88 in 10.0 mi West 4.6 mph - 0.00 in Rain Light Rain
12:53 PM 55.0 °F 52.0 °F 89% 29.89 in 10.0 mi WNW 5.8 mph - 0.00 in   Overcast
1:53 PM 57.0 °F 46.9 °F 69% 29.90 in 10.0 mi NW 4.6 mph - N/A   Overcast
2:53 PM 57.0 °F 48.0 °F 72% 29.92 in 10.0 mi NE 5.8 mph - N/A   Overcast
3:53 PM 57.9 °F 46.9 °F 67% 29.94 in 10.0 mi Calm Calm - N/A   Overcast
4:53 PM 57.0 °F 48.0 °F 72% 29.95 in 10.0 mi NE 5.8 mph - N/A   Overcast
5:53 PM 55.9 °F 48.0 °F 75% 29.98 in 10.0 mi Calm Calm - N/A   Overcast
6:53 PM 54.0 °F 48.9 °F 83% 30.00 in 10.0 mi Calm Calm - N/A   Overcast
7:53 PM 53.1 °F 50.0 °F 89% 30.03 in 10.0 mi Calm Calm - N/A   Overcast
8:53 PM 53.1 °F 48.9 °F 86% 30.06 in 10.0 mi Calm Calm - N/A   Overcast
9:53 PM 52.0 °F 48.9 °F 89% 30.08 in 7.0 mi WSW 3.5 mph - N/A   Overcast
10:53 PM 52.0 °F 48.9 °F 89% 30.09 in 6.0 mi Calm Calm - N/A   Overcast
11:53 PM 51.1 °F 48.9 °F 92% 30.12 in 5.0 mi Calm Calm - N/A   Overcast